GW4504 Weather Reports


time (UTC)temp
C
wind
direction
speed
KPH
gust
KPH
rain 1hr
cm
rain 24hr
cm
rain mn
cm
humidity
%
barometer
mb
20260507091552 7 323 0.0 0.0 0.00 0.00 0.00 83 1016.8
20260507090043 7 323 0.0 0.0 0.00 0.00 0.00 81 1017.1
20260507084536 7 323 0.0 0.0 0.00 0.00 0.00 80 1017.0
20260507083031 7 323 0.0 0.0 0.00 0.00 0.00 79 1017.1
20260507081542 8 323 0.0 0.0 0.00 0.00 0.00 79 1017.5
20260507080029 8 325 0.0 0.0 0.00 0.00 0.00 77 1017.4
20260507074531 8 323 0.0 0.0 0.00 0.00 0.00 78 1017.6
20260507073027 8 325 0.0 0.0 0.00 0.00 0.00 76 1017.5
20260507071526 8 325 0.0 0.0 0.00 0.00 0.00 79 1017.5
20260507070024 8 325 0.0 0.0 0.00 0.00 0.00 78 1017.3
20260507064526 8 325 0.0 0.0 0.00 0.00 0.00 78 1017.6
20260507063120 8 325 0.0 0.0 0.00 0.00 0.00 77 1017.6
20260507061529 8 325 0.0 0.0 0.00 0.00 0.00 77 1017.7
20260507060028 8 323 0.0 0.0 0.00 0.00 0.00 77 1017.5
20260507054515 9 322 0.0 0.0 0.00 0.00 0.00 76 1017.4
20260507053016 9 325 0.0 0.0 0.00 0.00 0.00 77 1017.3
20260507051512 9 329 0.0 0.0 0.00 0.00 0.00 76 1017.2
20260507050018 9 319 0.0 0.0 0.00 0.00 0.00 77 1017.4
20260507044521 9 319 0.0 0.0 0.00 0.00 0.00 75 1017.3
20260507043007 9 319 0.0 0.0 0.00 0.00 0.00 75 1017.1
20260507041507 9 319 0.0 0.0 0.00 0.00 0.00 77 1017.3
20260507040007 9 314 0.0 0.0 0.00 0.00 0.00 78 1017.3
20260507034507 9 313 0.0 0.0 0.00 0.00 0.00 77 1017.4
20260507033009 10 322 0.0 0.0 0.00 0.00 0.00 77 1017.0
20260507031505 10 321 0.0 0.0 0.00 0.00 0.00 75 1016.7
20260507030005 10 20 0.0 0.0 0.00 0.00 0.00 76 1016.6
20260507024506 10 20 0.0 0.0 0.00 0.00 0.00 74 1016.5
20260507023004 11 20 0.0 0.0 0.00 0.00 0.00 71 1016.4
20260507021503 11 20 0.0 0.0 0.00 0.00 0.00 70 1016.3
20260507020004 12 20 0.0 0.0 0.00 0.00 0.00 67 1016.2
20260507014503 12 20 0.0 0.0 0.00 0.00 0.00 65 1016.0
20260507013002 13 20 0.0 0.0 0.00 0.00 0.00 62 1015.9
20260507011502 14 20 0.0 0.0 0.00 0.00 0.00 57 1015.7
20260507010002 15 16 3.2 8.0 0.00 0.00 0.00 56 1015.5
20260507004501 15 34 1.6 9.7 0.00 0.00 0.00 55 1015.4
20260507003101 15 13 6.4 12.9 0.00 0.00 0.00 54 1015.3
20260507001606 15 18 6.4 16.1 0.00 0.00 0.00 54 1015.2
20260507000100 16 16 6.4 16.1 0.00 0.00 0.00 55 1015.1
20260506234559 16 9 6.4 17.7 0.00 0.00 0.00 54 1015.0
20260506233059 17 19 6.4 16.1 0.00 0.00 0.00 51 1014.7
20260506231557 17 5 3.2 14.5 0.00 0.00 0.00 52 1014.5
20260506230103 16 19 9.7 19.3 0.00 0.00 0.00 49 1014.3
20260506224558 17 36 9.7 19.3 0.00 0.00 0.00 51 1014.3
20260506223055 17 34 11.3 22.5 0.00 0.00 0.00 52 1014.1
20260506221556 17 61 11.3 27.4 0.00 0.00 0.00 52 1014.0
20260506220054 17 26 14.5 27.4 0.00 0.00 0.00 50 1014.0
20260506214553 17 71 9.7 30.6 0.00 0.00 0.00 52 1014.2
20260506213052 17 19 12.9 25.7 0.00 0.00 0.00 52 1014.2
20260506211552 17 44 9.7 22.5 0.00 0.00 0.00 53 1014.2
20260506210052 17 5 11.3 27.4 0.00 0.00 0.00 54 1014.4
20260506204547 17 16 9.7 17.7 0.00 0.00 0.00 54 1014.6
20260506203051 17 25 8.0 25.7 0.00 0.00 0.00 54 1014.7
20260506201604 17 355 11.3 24.1 0.00 0.00 0.00 55 1014.8
20260506200042 17 38 9.7 22.5 0.00 0.00 0.00 55 1014.9
20260506194549 16 335 6.4 19.3 0.00 0.00 0.00 57 1015.1
20260506193044 16 51 9.7 22.5 0.00 0.00 0.00 55 1015.4
20260506191542 16 62 8.0 19.3 0.00 0.00 0.00 56 1015.5
20260506190038 16 81 8.0 25.7 0.00 0.00 0.00 56 1015.6
20260506184547 16 86 9.7 24.1 0.00 0.00 0.00 56 1015.7
20260506183039 16 49 14.5 25.7 0.00 0.00 0.00 56 1015.9
20260506181532 16 71 9.7 20.9 0.00 0.00 0.00 58 1016.1
20260506180029 16 5 8.0 24.1 0.00 0.00 0.00 59 1016.2
20260506174526 15 38 12.9 22.5 0.00 0.00 0.00 56 1016.5
20260506173022 15 96 11.3 25.7 0.00 0.00 0.00 57 1016.8
20260506171518 15 81 9.7 20.9 0.00 0.00 0.00 57 1017.1
20260506170016 14 102 12.9 27.4 0.00 0.00 0.00 57 1017.2
20260506164512 14 71 14.5 30.6 0.00 0.00 0.00 59 1017.3
20260506163017 14 86 9.7 24.1 0.00 0.00 0.00 61 1017.3
20260506161505 13 66 14.5 24.1 0.00 0.00 0.00 61 1017.1
20260506160007 13 12 14.5 24.1 0.00 0.00 0.00 63 1016.9
20260506154607 13 30 8.0 24.1 0.00 0.00 0.00 67 1016.7
20260506153055 13 56 11.3 22.5 0.00 0.00 0.00 67 1016.1
20260506151552 13 16 8.0 29.0 0.00 0.00 0.00 71 1016.1
20260506150048 12 10 6.4 20.9 0.00 0.00 0.00 73 1015.8
20260506144545 12 51 11.3 22.5 0.00 0.00 0.00 74 1015.8
20260506143039 11 355 6.4 19.3 0.00 0.00 0.00 75 1015.8
20260506141536 11 346 4.8 16.1 0.00 0.00 0.00 78 1016.1
20260506140038 10 76 6.4 17.7 0.00 0.00 0.00 78 1015.8
20260506134530 10 74 8.0 16.1 0.00 0.00 0.00 80 1016.0
20260506133028 10 36 8.0 16.1 0.00 0.00 0.00 81 1015.7
20260506131526 9 51 8.0 17.7 0.00 0.00 0.00 82 1016.0
20260506130028 9 54 8.0 16.1 0.00 0.00 0.00 83 1016.2
20260506124522 8 58 8.0 19.3 0.00 0.00 0.00 85 1015.9
20260506123021 8 69 6.4 16.1 0.00 0.00 0.00 86 1015.6
20260506121519 8 17 6.4 17.7 0.00 0.00 0.00 86 1015.7
20260506120022 8 5 6.4 16.1 0.00 0.00 0.00 87 1015.3
20260506114518 8 53 6.4 16.1 0.00 0.00 0.00 87 1015.4
20260506113018 8 26 3.2 14.5 0.00 0.00 0.00 87 1015.7
20260506111516 8 19 4.8 16.1 0.00 0.00 0.00 87 1015.5
20260506110013 8 5 6.4 19.3 0.00 0.00 0.00 86 1015.4
20260506104511 8 343 6.4 14.5 0.00 0.00 0.00 86 1015.3
20260506103013 8 323 6.4 17.7 0.00 0.00 0.00 86 1014.8
20260506101506 8 328 6.4 16.1 0.00 0.00 0.00 85 1014.5
20260506100004 8 28 8.0 17.7 0.00 0.00 0.00 85 1014.2
20260506094503 8 346 9.7 19.3 0.00 0.00 0.00 85 1014.1
20260506093003 8 343 8.0 20.9 0.00 0.00 0.00 85 1014.1